Walvis Bay Airport

Jump to: basic info | weather | frequencies | runways | comments

Related pages: nearby airports | nearby navaids | notams | map

Basic information (top)

Codes: WVB FYWB
Location: lon -22.979900, lat 14.645300, elev 299 ft / 91 m msl
Status: medium_airport
Scheduled airline service: no
Links: Wikipedia Mobile

Weather (top)

Current conditions (rec'd 2014/10/20 20:00Z):

FYWB 202000Z AUTO 25004KT //// // ////// 12/09 Q1018

Airport forecast (rec'd 2014/10/20 06:05Z):

TAF FYWB 200400Z 2006/2112 36005KT 0800 FG OVC009 
      BECMG 2007/2008 9999 NSW BKN012 
     FM200900 23010KT CAVOK 
      BECMG 2019/2021 9999 BKN010

Frequencies (top)

Verify before use: may be inaccurate or out of date.

APP: 122.5 MHz (APP)
TWR: 122.5 MHz (TWR)

Runways (top)

09/27: 7,001 x 98 ft (2,134 x 30 m) — paved — lighted

Latest comments (top)

No comments yet for Walvis Bay Airport

More... (top)

See also NOTAMs and nearby airports and navaids, or visit the Walvis Bay Airport page at the main OurAirports website..